Change the Weather History Date:

Sunday, August 4, 2013

  Actual Average (KPNC) Record (KPNC)
Temperature  
Mean Temperature 80 °F -  
Max Temperature 84 °F 93 °F 110 °F (1964)
Min Temperature 75 °F 66 °F 59 °F (1973)
Cooling Degree Days 14    
Growing Degree Days 30 (Base 50)    
Moisture  
Dew Point 75 °F    
Average Humidity 91    
Maximum Humidity 100    
Minimum Humidity 74    
Precipitation  
Precipitation 0.07 in - - ()
Sea Level Pressure  
Sea Level Pressure 30.01 in    
Wind  
Wind Speed 9 mph (ENE)    
Max Wind Speed 16 mph    
Max Gust Speed 22 mph    
Visibility 8 miles    
Events Rain    
Averages and records for this station are not official NWS values.
T = Trace of Precipitation, MM = Missing Value Source: NWS Daily Summary

Daily Weather History Graph

Daily Weather History Graph

Search for Another Location

Airport or City:

Trip Planner

Search our weather history database for the weather conditions in past years. The results will help you decide how hot, cold, wet, or windy it might be!

Date:

Astronomy

Aug. 04, 2013 Rise Set
Actual Time 6:37 AM CDT 8:32 PM CDT
Civil Twilight 6:09 AM CDT 9:00 PM CDT
Nautical Twilight 5:35 AM CDT 9:35 PM CDT
Astronomical Twilight 4:58 AM CDT 10:11 PM CDT
Moon 4:40 AM CDT (8/4) 6:56 PM CDT (8/4)
Length of Visible Light 14h 51m
Length of Day
13h 54m
Waning Crescent, 4% of the Moon is Illuminated
Aug 4
Waning Crescent
Aug 6
New
Aug 14
First Quarter
Aug 20
Full
Aug 28
Last Quarter

Hourly Weather History & Observations

Time (CDT) Temp. Heat Index Dew Point Humidity Pressure Visibility Wind Dir Wind Speed Gust Speed Precip Events Conditions
12:15 AM 75.2 °F - 73.4 °F 94% 30.02 in 8.0 mi ESE 9.2 mph - N/A Rain Light Rain
12:35 AM 75.2 °F - 73.4 °F 94% 30.01 in 10.0 mi ESE 8.1 mph - N/A   Overcast
12:55 AM 75.2 °F - 73.4 °F 94% 30.00 in 10.0 mi ESE 6.9 mph - N/A   Overcast
1:15 AM 75.2 °F - 73.4 °F 94% 29.99 in 10.0 mi ESE 8.1 mph - N/A   Mostly Cloudy
1:35 AM 75.2 °F - 73.4 °F 94% 29.99 in 10.0 mi East 6.9 mph - N/A   Mostly Cloudy
1:55 AM 75.2 °F - 73.4 °F 94% 30.01 in 10.0 mi ENE 5.8 mph - N/A   Mostly Cloudy
2:15 AM 75.2 °F - 73.4 °F 94% 30.00 in 10.0 mi East 5.8 mph - N/A   Overcast
2:35 AM 75.2 °F - 73.4 °F 94% 30.00 in 10.0 mi East 6.9 mph - N/A   Mostly Cloudy
2:55 AM 75.2 °F - 73.4 °F 94% 30.01 in 10.0 mi ENE 6.9 mph - N/A   Scattered Clouds
3:15 AM 75.2 °F - 73.4 °F 94% 30.02 in 10.0 mi NE 6.9 mph - N/A   Mostly Cloudy
3:35 AM 75.2 °F - 73.4 °F 94% 30.02 in 8.0 mi ENE 9.2 mph - 0.01 in Rain Light Rain
3:55 AM 75.2 °F - 73.4 °F 94% 30.02 in 10.0 mi ENE 9.2 mph - 0.01 in   Overcast
4:15 AM 75.2 °F - 73.4 °F 94% 30.03 in 10.0 mi ENE 11.5 mph - N/A   Overcast
4:35 AM 75.2 °F - 73.4 °F 94% 30.03 in 10.0 mi ENE 9.2 mph - N/A   Overcast
4:55 AM 75.2 °F - 73.4 °F 94% 30.04 in 10.0 mi NE 6.9 mph - N/A Rain Light Rain
5:15 AM 75.2 °F - 73.4 °F 94% 30.06 in 9.0 mi North 11.5 mph - N/A Rain Light Rain
5:35 AM 75.2 °F - 73.4 °F 94% 30.07 in 8.0 mi North 9.2 mph - N/A Rain Light Rain
5:55 AM 75.2 °F - 73.4 °F 94% 30.03 in 5.0 mi ENE 12.7 mph 18.4 mph 0.03 in Rain Light Rain
6:15 AM 75.2 °F - 73.4 °F 94% 30.06 in 7.0 mi NNE 9.2 mph - 0.01 in Rain Light Rain
6:35 AM 75.2 °F - 73.4 °F 94% 30.07 in 5.0 mi North 6.9 mph - 0.01 in Rain Light Rain
6:55 AM 75.2 °F - 73.4 °F 94% 30.07 in 7.0 mi ENE 4.6 mph - 0.01 in   Mostly Cloudy
7:15 AM 75.2 °F - 73.4 °F 94% 30.07 in 3.0 mi NNE 3.5 mph - 0.01 in Rain Light Rain
7:35 AM 75.2 °F - 73.4 °F 94% 30.08 in 5.0 mi NNE 3.5 mph - 0.01 in   Partly Cloudy
7:55 AM 75.2 °F - 73.4 °F 94% 30.09 in 5.0 mi North 3.5 mph - 0.01 in Rain Light Rain
8:15 AM 75.2 °F - 73.4 °F 94% 30.09 in 4.0 mi NNE 5.8 mph - 0.01 in Rain Light Rain
8:35 AM 75.2 °F - 73.4 °F 94% 30.09 in 4.0 mi ENE 5.8 mph - 0.01 in   Scattered Clouds
8:55 AM 75.2 °F - 73.4 °F 94% 30.09 in 5.0 mi ENE 5.8 mph - 0.01 in   Mostly Cloudy
9:15 AM 75.2 °F - 75.2 °F 100% 30.07 in 4.0 mi East 10.4 mph - N/A Rain Light Rain
9:35 AM 75.2 °F - 75.2 °F 100% 30.05 in 5.0 mi East 15.0 mph 19.6 mph N/A   Clear
9:55 AM 75.2 °F - 73.4 °F 94% 30.04 in 5.0 mi ENE 11.5 mph - N/A   Partly Cloudy
10:15 AM 75.2 °F - 75.2 °F 100% 30.04 in 6.0 mi East 11.5 mph - N/A   Partly Cloudy
10:35 AM 77.0 °F - 75.2 °F 94% 30.05 in 7.0 mi East 11.5 mph - N/A   Mostly Cloudy
10:55 AM 77.0 °F - 75.2 °F 94% 30.04 in 8.0 mi East 15.0 mph 19.6 mph N/A   Scattered Clouds
11:15 AM 77.0 °F - 75.2 °F 94% 30.04 in 9.0 mi East 12.7 mph 18.4 mph N/A   Scattered Clouds
11:35 AM 78.8 °F - 75.2 °F 89% 30.04 in 9.0 mi ESE 13.8 mph 19.6 mph N/A   Scattered Clouds
11:55 AM 78.8 °F - 75.2 °F 89% 30.05 in 9.0 mi East 12.7 mph 17.3 mph N/A   Scattered Clouds
12:15 PM 78.8 °F - 75.2 °F 89% 30.05 in 10.0 mi East 10.4 mph - N/A   Scattered Clouds
12:35 PM 78.8 °F - 75.2 °F 89% 30.04 in 10.0 mi East 9.2 mph 16.1 mph N/A   Mostly Cloudy
12:55 PM 78.8 °F - 75.2 °F 89% 30.04 in 9.0 mi East 10.4 mph - N/A   Mostly Cloudy
1:15 PM 78.8 °F - 75.2 °F 89% 30.03 in 9.0 mi East 10.4 mph - N/A   Mostly Cloudy
1:35 PM 78.8 °F - 75.2 °F 89% 30.02 in 9.0 mi East 8.1 mph - N/A   Mostly Cloudy
1:55 PM 80.6 °F 86.2 °F 75.2 °F 84% 30.02 in 10.0 mi East 10.4 mph - N/A   Mostly Cloudy
2:15 PM 80.6 °F 86.2 °F 75.2 °F 84% 30.01 in 10.0 mi ESE 13.8 mph 17.3 mph N/A   Mostly Cloudy
2:35 PM 82.4 °F 89.5 °F 75.2 °F 79% 30.01 in 10.0 mi ESE 15.0 mph 19.6 mph N/A   Mostly Cloudy
2:55 PM 82.4 °F 89.5 °F 75.2 °F 79% 30.01 in 10.0 mi ESE 13.8 mph 20.7 mph N/A   Partly Cloudy
3:15 PM 80.6 °F 86.2 °F 75.2 °F 84% 30.01 in 10.0 mi ESE 15.0 mph - N/A   Mostly Cloudy
3:35 PM 80.6 °F 86.2 °F 75.2 °F 84% 30.00 in 10.0 mi East 16.1 mph 20.7 mph N/A   Overcast
3:55 PM 82.4 °F 89.5 °F 75.2 °F 79% 29.99 in 10.0 mi East 13.8 mph 21.9 mph N/A   Overcast
4:15 PM 82.4 °F 89.5 °F 75.2 °F 79% 29.98 in 10.0 mi East 15.0 mph 19.6 mph N/A   Mostly Cloudy
4:35 PM 84.2 °F 92.3 °F 75.2 °F 74% 29.98 in 10.0 mi East 15.0 mph 21.9 mph N/A   Scattered Clouds
4:55 PM 84.2 °F 92.3 °F 75.2 °F 74% 29.97 in 10.0 mi East 15.0 mph - N/A   Mostly Cloudy
5:15 PM 82.4 °F 89.5 °F 75.2 °F 79% 29.97 in 10.0 mi East 10.4 mph 18.4 mph N/A   Overcast
5:35 PM 82.4 °F 89.5 °F 75.2 °F 79% 29.96 in 10.0 mi East 10.4 mph - N/A   Overcast
5:55 PM 82.4 °F 90.9 °F 77.0 °F 84% 29.95 in 10.0 mi East 11.5 mph 17.3 mph N/A   Mostly Cloudy
6:15 PM 82.4 °F 90.9 °F 77.0 °F 84% 29.94 in 10.0 mi East 11.5 mph - N/A   Scattered Clouds
6:35 PM 82.4 °F 90.9 °F 77.0 °F 84% 29.94 in 10.0 mi East 10.4 mph - N/A   Scattered Clouds
6:55 PM 82.4 °F 90.9 °F 77.0 °F 84% 29.94 in 10.0 mi ENE 10.4 mph - N/A   Scattered Clouds
7:15 PM 82.4 °F 90.9 °F 77.0 °F 84% 29.94 in 10.0 mi East 11.5 mph 18.4 mph N/A   Mostly Cloudy
7:35 PM 80.6 °F 86.2 °F 75.2 °F 84% 29.94 in 10.0 mi ENE 12.7 mph 16.1 mph N/A   Mostly Cloudy
7:55 PM 80.6 °F 87.1 °F 77.0 °F 89% 29.95 in 9.0 mi East 12.7 mph - N/A   Mostly Cloudy
8:15 PM 80.6 °F 86.2 °F 75.2 °F 84% 29.95 in 9.0 mi ENE 11.5 mph - N/A   Mostly Cloudy
8:35 PM 78.8 °F - 75.2 °F 89% 29.95 in 8.0 mi ENE 10.4 mph - N/A   Mostly Cloudy
8:55 PM 77.0 °F - 75.2 °F 94% 29.96 in 8.0 mi ENE 10.4 mph - N/A   Mostly Cloudy
9:15 PM 77.0 °F - 75.2 °F 94% 29.95 in 7.0 mi ENE 10.4 mph 16.1 mph N/A   Overcast
9:35 PM 77.0 °F - 75.2 °F 94% 29.95 in 7.0 mi ENE 11.5 mph - N/A   Overcast
9:55 PM 77.0 °F - 75.2 °F 94% 29.96 in 7.0 mi ENE 10.4 mph - N/A   Mostly Cloudy
10:15 PM 77.0 °F - 75.2 °F 94% 29.97 in 5.0 mi ENE 10.4 mph - N/A   Scattered Clouds
10:35 PM 77.0 °F - 75.2 °F 94% 29.97 in 6.0 mi ENE 8.1 mph - N/A   Mostly Cloudy
10:55 PM 75.2 °F - 75.2 °F 100% 29.96 in 5.0 mi East 6.9 mph - N/A   Mostly Cloudy
11:15 PM 75.2 °F - 75.2 °F 100% 29.97 in 5.0 mi ENE 6.9 mph - N/A   Mostly Cloudy
11:35 PM 75.2 °F - 75.2 °F 100% 29.96 in 5.0 mi East 8.1 mph - N/A   Overcast
11:55 PM 75.2 °F - 73.4 °F 94% 29.96 in 7.0 mi ENE 6.9 mph - N/A   Mostly Cloudy